Litchfield, IL

2:01 AM CDT on September 22, 2017 (GMT -0500)
Litchfield

Weather History for K3LF - March, 2013

Change the Weather History Date:

Wednesday, March 6, 2013

  Actual Average (KALN) Record (KALN)
Temperature  
Mean Temperature 29 °F -  
Max Temperature 33 °F 45 °F 77 °F (2009)
Min Temperature 25 °F 29 °F 4 °F (2015)
Degree Days  
Heating Degree Days 36    
Moisture  
Dew Point 24 °F    
Average Humidity 80    
Maximum Humidity 89    
Minimum Humidity 73    
Precipitation  
Precipitation 0.00 in - - ()
Sea Level Pressure  
Sea Level Pressure 30.27 in    
Wind  
Wind Speed 17 mph (NNW)    
Max Wind Speed 28 mph    
Max Gust Speed 33 mph    
Visibility 10 miles    
Events      
Averages and records for this station are not official NWS values.
T = Trace of Precipitation, MM = Missing Value Source: NWS Daily Summary

Daily Weather History Graph

Daily Weather History Graph

Search for Another Location

Airport or City:

Trip Planner

Search our weather history database for the weather conditions in past years. The results will help you decide how hot, cold, wet, or windy it might be!

Date:

Astronomy

Mar. 06, 2013 Rise Set
Actual Time 6:23 AM CST 5:56 PM CST
Civil Twilight 5:56 AM CST 6:23 PM CST
Nautical Twilight 5:25 AM CST 6:54 PM CST
Astronomical Twilight 4:54 AM CST 7:25 PM CST
Moon 2:30 AM CST (3/6) 12:40 PM CST (3/6)
Length of Visible Light 12h 26m
Length of Day
11h 33m
Waning Crescent, 29% of the Moon is Illuminated
Mar 6
Waning Crescent
Mar 11
New
Mar 19
First Quarter
Mar 27
Full
Apr 2
Last Quarter

Hourly Weather History & Observations

Time (CST) Temp. Windchill Dew Point Humidity Pressure Visibility Wind Dir Wind Speed Gust Speed Precip Events Conditions
12:15 AM 30.2 °F 18.5 °F 25.0 °F 81% 30.08 in 10.0 mi NW 17.3 mph 27.6 mph N/A   Overcast
12:35 AM 30.2 °F 18.1 °F 25.2 °F 82% 30.08 in 10.0 mi NW 18.4 mph 26.5 mph N/A   Overcast
12:55 AM 30.0 °F 17.5 °F 25.3 °F 83% 30.09 in 10.0 mi NW 19.6 mph 25.3 mph N/A   Overcast
1:15 AM 30.0 °F 15.4 °F 24.1 °F 79% 30.10 in 10.0 mi NW 27.6 mph 33.4 mph N/A   Overcast
1:35 AM 30.0 °F 16.3 °F 23.9 °F 78% 30.11 in 10.0 mi NW 24.2 mph 33.4 mph N/A   Overcast
1:55 AM 29.7 °F 15.2 °F 23.9 °F 79% 30.11 in 10.0 mi NNW 26.5 mph 32.2 mph N/A   Overcast
2:15 AM 29.8 °F 17.7 °F 25.0 °F 82% 30.12 in 10.0 mi NW 18.4 mph 25.3 mph N/A   Overcast
2:35 AM 29.8 °F 16.6 °F 24.1 °F 79% 30.12 in 10.0 mi NW 21.9 mph 28.8 mph N/A   Overcast
2:55 AM 29.8 °F 17.7 °F 24.6 °F 81% 30.13 in 10.0 mi NW 18.4 mph 31.1 mph N/A   Overcast
3:15 AM 29.7 °F 16.4 °F 24.1 °F 80% 30.14 in 10.0 mi NW 21.9 mph 28.8 mph N/A   Overcast
3:35 AM 29.7 °F 17.1 °F 24.4 °F 81% 30.15 in 10.0 mi NW 19.6 mph 31.1 mph N/A   Overcast
3:55 AM 29.7 °F 16.4 °F 24.6 °F 81% 30.16 in 10.0 mi NNW 21.9 mph 26.5 mph N/A   Overcast
4:15 AM 29.3 °F 15.3 °F 23.9 °F 80% 30.17 in 10.0 mi NNW 24.2 mph 29.9 mph N/A   Overcast
4:55 AM 29.3 °F 16.2 °F 23.9 °F 80% 30.20 in 10.0 mi NW 20.7 mph 27.6 mph N/A   Overcast
5:15 AM 29.3 °F 17.3 °F 23.9 °F 80% 30.21 in 10.0 mi NW 17.3 mph 29.9 mph N/A   Overcast
5:35 AM 29.1 °F 17.1 °F 24.4 °F 83% 30.22 in 10.0 mi NW 17.3 mph 26.5 mph N/A   Overcast
6:15 AM 28.6 °F 15.6 °F 23.9 °F 83% 30.23 in 10.0 mi NNW 19.6 mph 24.2 mph N/A   Overcast
6:35 AM 28.8 °F 16.2 °F 23.9 °F 82% 30.24 in 10.0 mi NW 18.4 mph 25.3 mph N/A   Overcast
6:55 AM 28.6 °F 15.3 °F 23.7 °F 82% 30.25 in 10.0 mi NW 20.7 mph 29.9 mph N/A   Overcast
7:15 AM 28.4 °F 14.7 °F 23.7 °F 83% 30.26 in 10.0 mi NW 21.9 mph 27.6 mph N/A   Overcast
7:35 AM 28.6 °F 14.3 °F 23.4 °F 81% 30.27 in 10.0 mi NNW 24.2 mph 29.9 mph N/A   Overcast
8:15 AM 28.9 °F 15.4 °F 23.4 °F 80% 30.28 in 10.0 mi NNW 21.9 mph 27.6 mph N/A   Scattered Clouds
8:35 AM 29.1 °F 16.7 °F 23.9 °F 81% 30.29 in 10.0 mi NNW 18.4 mph 23.0 mph N/A   Scattered Clouds
8:55 AM 29.3 °F 18.2 °F 23.9 °F 80% 30.30 in 10.0 mi NW 15.0 mph - N/A   Scattered Clouds
9:15 AM 29.7 °F 17.8 °F 24.1 °F 80% 30.31 in 10.0 mi NW 17.3 mph 23.0 mph N/A   Mostly Cloudy
9:35 AM 29.7 °F 18.6 °F 24.4 °F 81% 30.31 in 10.0 mi NW 15.0 mph - N/A   Overcast
9:55 AM 29.8 °F 18.4 °F 24.3 °F 80% 30.32 in 10.0 mi NW 16.1 mph - N/A   Overcast
10:15 AM 30.2 °F 18.5 °F 24.3 °F 79% 30.32 in 10.0 mi NNW 17.3 mph 20.7 mph N/A   Overcast
10:35 AM 30.6 °F 19.0 °F 24.8 °F 79% 30.33 in 10.0 mi NNW 17.3 mph 20.7 mph N/A   Overcast
10:55 AM 31.1 °F 20.5 °F 24.8 °F 77% 30.33 in 10.0 mi NNW 15.0 mph - N/A   Overcast
11:15 AM 30.9 °F 19.1 °F 25.0 °F 79% 30.33 in 10.0 mi NNW 18.4 mph - N/A   Overcast
11:35 AM 31.1 °F 20.5 °F 25.0 °F 78% 30.32 in 10.0 mi North 15.0 mph - N/A   Overcast
11:55 AM 31.3 °F 20.7 °F 25.5 °F 79% 30.33 in 10.0 mi NW 15.0 mph - N/A   Overcast
12:15 PM 31.8 °F 21.0 °F 25.5 °F 78% 30.33 in 10.0 mi NNW 16.1 mph - N/A   Overcast
12:55 PM 32.9 °F 23.2 °F 26.4 °F 77% 30.31 in 10.0 mi NNW 13.8 mph - N/A   Mostly Cloudy
1:15 PM 32.2 °F 21.8 °F 25.7 °F 77% 30.31 in 10.0 mi NNW 15.0 mph - N/A   Overcast
1:35 PM 32.2 °F 22.7 °F 25.3 °F 76% 30.31 in 10.0 mi NNW 12.7 mph - N/A   Overcast
1:55 PM 32.9 °F 24.7 °F 25.7 °F 75% 30.31 in 10.0 mi NW 10.4 mph - N/A   Mostly Cloudy
2:15 PM 32.9 °F 24.1 °F 25.7 °F 75% 30.31 in 10.0 mi NW 11.5 mph 17.3 mph N/A   Overcast
2:35 PM 32.9 °F 23.2 °F 25.3 °F 74% 30.31 in 10.0 mi NW 13.8 mph - N/A   Overcast
2:55 PM 32.9 °F 23.7 °F 25.7 °F 75% 30.32 in 10.0 mi NW 12.7 mph - N/A   Overcast
3:15 PM 33.1 °F 24.9 °F 26.2 °F 76% 30.32 in 10.0 mi NW 10.4 mph - N/A   Overcast
3:35 PM 32.9 °F 24.1 °F 25.3 °F 74% 30.32 in 10.0 mi NW 11.5 mph - N/A   Overcast
3:55 PM 32.9 °F 23.7 °F 25.3 °F 74% 30.32 in 10.0 mi NW 12.7 mph - N/A   Overcast
4:15 PM 32.5 °F 24.2 °F 24.8 °F 73% 30.33 in 10.0 mi NW 10.4 mph - N/A   Overcast
4:35 PM 32.2 °F 23.2 °F 25.0 °F 75% 30.33 in 10.0 mi NW 11.5 mph - N/A   Overcast
4:55 PM 32.0 °F 23.0 °F 24.6 °F 74% 30.33 in 10.0 mi NNW 11.5 mph - N/A   Overcast
5:15 PM 31.8 °F 23.3 °F 24.3 °F 74% 30.33 in 10.0 mi NNW 10.4 mph - N/A   Overcast
5:35 PM 31.5 °F 22.3 °F 24.6 °F 76% 30.33 in 10.0 mi NNW 11.5 mph - N/A   Overcast
5:55 PM 30.9 °F 22.2 °F 24.8 °F 78% 30.33 in 10.0 mi North 10.4 mph - N/A   Overcast
6:15 PM 30.4 °F 21.5 °F 24.6 °F 79% 30.33 in 10.0 mi North 10.4 mph - N/A   Overcast
6:35 PM 30.2 °F 21.9 °F 24.4 °F 79% 30.33 in 10.0 mi North 9.2 mph - N/A   Overcast
6:55 PM 30.2 °F 22.6 °F 24.3 °F 79% 30.33 in 10.0 mi North 8.1 mph - N/A   Overcast
7:15 PM 30.2 °F 22.6 °F 23.9 °F 77% 30.33 in 10.0 mi North 8.1 mph - N/A   Overcast
7:35 PM 30.0 °F 22.4 °F 23.7 °F 77% 30.33 in 10.0 mi North 8.1 mph - N/A   Overcast
7:55 PM 29.3 °F 21.5 °F 23.5 °F 79% 30.33 in 10.0 mi North 8.1 mph - N/A   Mostly Cloudy
8:15 PM 28.8 °F 22.6 °F 23.4 °F 80% 30.33 in 10.0 mi North 5.8 mph - N/A   Clear
8:35 PM 28.4 °F 21.2 °F 23.5 °F 82% 30.33 in 10.0 mi North 6.9 mph - N/A   Clear
8:55 PM 27.5 °F 19.3 °F 23.0 °F 83% 30.33 in 10.0 mi North 8.1 mph - N/A   Clear
9:15 PM 27.5 °F 20.2 °F 22.6 °F 82% 30.33 in 10.0 mi North 6.9 mph - N/A   Clear
9:35 PM 26.4 °F 19.8 °F 22.1 °F 84% 30.33 in 10.0 mi NNE 5.8 mph - N/A   Clear
9:55 PM 26.6 °F 22.6 °F 22.3 °F 84% 30.34 in 10.0 mi North 3.5 mph - N/A   Clear
10:15 PM 26.6 °F 22.6 °F 22.6 °F 85% 30.34 in 10.0 mi NW 3.5 mph - N/A   Clear
10:35 PM 25.7 °F 20.1 °F 22.5 °F 88% 30.33 in 10.0 mi North 4.6 mph - N/A   Clear
10:55 PM 26.2 °F 22.1 °F 22.8 °F 87% 30.33 in 10.0 mi North 3.5 mph - N/A   Clear
11:15 PM 25.5 °F 21.3 °F 22.6 °F 89% 30.33 in 10.0 mi North 3.5 mph - N/A   Clear
11:35 PM 25.5 °F 21.3 °F 22.1 °F 87% 30.33 in 10.0 mi NNE 3.5 mph - N/A   Clear
11:55 PM 25.7 °F - 22.1 °F 86% 30.33 in 10.0 mi Calm Calm - N/A   Clear